Weather History for Ft. Stewart, GA

Change the Weather History Date:

Sunday, March 23, 2014

  Actual Average Record
Temperature  
Mean Temperature 68 °F -  
Max Temperature 79 °F 72 °F 86 °F (1975)
Min Temperature 57 °F 48 °F 31 °F (1986)
Cooling Degree Days 3    
Growing Degree Days 18 (Base 50)    
Moisture  
Dew Point 60 °F    
Average Humidity 85    
Maximum Humidity 100    
Minimum Humidity 45    
Precipitation  
Precipitation 0.01 in - - ()
Sea Level Pressure  
Sea Level Pressure 29.96 in    
Wind  
Wind Speed 3 mph (WSW)    
Max Wind Speed 14 mph    
Max Gust Speed 22 mph    
Visibility 5 miles    
Events Fog , Rain    
Averages and records for this station are not official NWS values.
T = Trace of Precipitation, MM = Missing Value Source: NWS Daily Summary

Daily Weather History Graph

Daily Weather History Graph

Search for Another Location

Airport:

Trip Planner

Search our weather history database for the weather conditions in past years. The results will help you decide how hot, cold, wet, or windy it might be!

Date:

Astronomy

Mar. 23, 2014 Rise Set
Actual Time 7:26 AM EDT 7:39 PM EDT
Civil Twilight 7:01 AM EDT 8:04 PM EDT
Nautical Twilight 6:33 AM EDT 8:32 PM EDT
Astronomical Twilight 6:04 AM EDT 9:01 PM EDT
Moon 1:38 AM EDT (3/23) 12:23 PM EDT (3/23)
Length of Visible Light 13h 02m
Length of Day
12h 13m
Waning Gibbous, 55% of the Moon is Illuminated
Mar 23
Waning Gibbous
Mar 23
Last Quarter
Mar 30
New
Apr 7
First Quarter
Apr 15
Full

Hourly Weather History & Observations

Time (EDT) Temp. Dew Point Humidity Pressure Visibility Wind Dir Wind Speed Gust Speed Precip Events Conditions
12:03 AM 62.6 °F 62.6 °F 100% 30.01 in 9.0 mi Calm Calm - N/A   Scattered Clouds
12:38 AM 60.8 °F 60.8 °F 100% 30.01 in 3.0 mi Calm Calm - N/A   Mostly Cloudy
12:48 AM 60.8 °F 60.8 °F 100% 30.00 in 8.0 mi Calm Calm - N/A   Mostly Cloudy
12:58 AM 61.5 °F 61.5 °F 100% 30.02 in 4.0 mi SW 2.3 mph - N/A   Mostly Cloudy
1:03 AM 60.8 °F 60.8 °F 100% 30.00 in 2.5 mi West 1.2 mph - N/A   Mostly Cloudy
1:18 AM 62.6 °F 62.6 °F 100% 29.99 in 1.0 mi SW 3.5 mph - N/A   Mist
1:23 AM 64.4 °F 64.4 °F 100% 29.99 in 0.8 mi WSW 2.3 mph - N/A   Mist
1:58 AM 64.0 °F 64.0 °F 100% 29.99 in 0.5 mi SW 4.6 mph - N/A Fog Fog
2:58 AM 63.7 °F 63.7 °F 100% 29.98 in 0.5 mi Calm Calm - N/A Fog Fog
3:58 AM 63.1 °F 63.1 °F 100% 29.96 in 0.8 mi Calm Calm - N/A   Mist
4:53 AM 62.6 °F 62.6 °F 100% 29.95 in 1.0 mi WSW 4.6 mph - N/A   Mist
4:58 AM 62.2 °F 62.2 °F 100% 29.96 in 1.2 mi SW 5.8 mph - N/A   Overcast
5:03 AM 62.6 °F 62.6 °F 100% 29.95 in 1.0 mi SW 5.8 mph - N/A   Mist
5:18 AM 60.8 °F 60.8 °F 100% 29.95 in 1.2 mi WSW 5.8 mph - N/A   Overcast
5:28 AM 60.8 °F 60.8 °F 100% 29.95 in 3.0 mi WSW 4.6 mph - N/A   Mostly Cloudy
5:33 AM 60.8 °F 60.8 °F 100% 29.95 in 4.0 mi WSW 4.6 mph - N/A   Scattered Clouds
5:48 AM 60.8 °F 60.8 °F 100% 29.95 in 5.0 mi WSW 4.6 mph - N/A   Mostly Cloudy
5:58 AM 60.3 °F 60.3 °F 100% 29.96 in 2.5 mi WSW 5.8 mph - N/A   Mostly Cloudy
6:03 AM 60.8 °F 60.8 °F 100% 29.95 in 1.0 mi WSW 4.6 mph - N/A   Mist
6:08 AM 60.8 °F 60.8 °F 100% 29.95 in 0.8 mi SW 4.6 mph - N/A   Mist
6:43 AM 59.0 °F 59.0 °F 100% 29.95 in 1.0 mi Calm Calm - N/A   Mist
6:48 AM 59.0 °F 59.0 °F 100% 29.95 in 1.2 mi Calm Calm - N/A   Mostly Cloudy
6:53 AM 59.0 °F 59.0 °F 100% 29.95 in 0.5 mi Calm Calm - N/A Fog Fog
6:58 AM 59.0 °F 59.0 °F 100% 29.96 in 0.2 mi Calm Calm - N/A Fog Fog
7:53 AM 57.2 °F 57.2 °F 100% 29.96 in 0.5 mi Calm Calm - N/A Fog Fog
7:58 AM 57.2 °F 57.2 °F 100% 29.98 in 1.2 mi Variable 1.2 mph - 0.01 in   Scattered Clouds
8:03 AM 57.2 °F 57.2 °F 100% 29.97 in 3.0 mi WSW 2.3 mph - N/A   Partly Cloudy
8:58 AM 59.7 °F 59.7 °F 100% 29.99 in 10.0 mi SW 4.6 mph - N/A   Scattered Clouds
9:58 AM 62.2 °F 62.2 °F 100% 29.99 in 10.0 mi WSW 3.5 mph - N/A   Mostly Cloudy
10:58 AM 70.0 °F 60.1 °F 71% 29.98 in 10.0 mi WSW 2.3 mph - N/A   Overcast
11:58 AM 73.8 °F 60.6 °F 63% 29.99 in 10.0 mi WSW 6.9 mph - N/A   Mostly Cloudy
12:58 PM 77.7 °F 57.2 °F 49% 29.97 in 10.0 mi West 10.4 mph - N/A   Scattered Clouds
1:58 PM 79.5 °F 56.5 °F 45% 29.96 in 10.0 mi West 10.4 mph - N/A   Mostly Cloudy
2:58 PM 77.7 °F 55.6 °F 46% 29.94 in 10.0 mi WNW 13.8 mph 21.9 mph N/A   Mostly Cloudy
3:37 PM 75.2 °F 55.4 °F 50% 29.90 in 10.0 mi WNW 10.4 mph - N/A Rain Light Rain
3:50 PM 75.2 °F 55.4 °F 50% 29.90 in 10.0 mi NW 11.5 mph - N/A   Scattered Clouds
3:58 PM 76.1 °F 55.8 °F 49% 29.92 in 10.0 mi WNW 11.5 mph - 0.00 in   Scattered Clouds
4:58 PM 76.3 °F 56.7 °F 51% 29.89 in 10.0 mi WNW 10.4 mph 16.1 mph N/A   Partly Cloudy
5:58 PM 75.9 °F 57.6 °F 53% 29.90 in 10.0 mi West 13.8 mph - N/A   Clear
6:58 PM 73.8 °F 57.0 °F 56% 29.91 in 10.0 mi West 10.4 mph - N/A   Clear
7:58 PM 71.4 °F 57.6 °F 62% 29.94 in 10.0 mi West 6.9 mph - N/A   Overcast
8:58 PM 68.9 °F 58.1 °F 68% 29.96 in 10.0 mi West 4.6 mph - N/A   Mostly Cloudy
9:58 PM 67.1 °F 58.6 °F 74% 29.99 in 10.0 mi WNW 5.8 mph - N/A   Clear
10:58 PM 65.5 °F 58.6 °F 79% 30.01 in 10.0 mi West 5.8 mph - N/A   Mostly Cloudy
11:58 PM 64.9 °F 58.3 °F 79% 30.03 in 10.0 mi NNE 11.5 mph - N/A   Overcast